When you browse on this site, cookies collect data to enhance your experience and personalize the content and advertising you see.
Visit our Privacy Policy to learn more. By continuing to use the site, you agree to this use of cookies and data.
  • In Romania
  • List of Countries
  • For 7 days
  • Water Temperature
  • Weather Map
  • Weather Widgets
  • user-avatar
    Login

    Hourly Weather Ciudad Bolívar

    Today, 24 January, Friday

    Time Temperature Precipitation Wind Pressure Humidity
    00:00 +28°C° 0 mm 5 mps 751 mmHg 66%
    01:00 +27°C° 0 mm 5 mps 751 mmHg 70%
    02:00 +26°C° 0 mm 4 mps 751 mmHg 73%
    03:00 +26°C° 0 mm 4 mps 751 mmHg 74%
    04:00 +26°C° 0 mm 3 mps 751 mmHg 76%
    05:00 +25°C° 0 mm 3 mps 751 mmHg 78%
    06:00 +25°C° 0 mm 3 mps 752 mmHg 77%
    07:00 +26°C° 0 mm 3 mps 752 mmHg 76%
    08:00 +26°C° 0 mm 3 mps 753 mmHg 75%
    09:00 +28°C° 0 mm 3 mps 753 mmHg 67%
    10:00 +30°C° 0 mm 3 mps 753 mmHg 59%
    11:00 +33°C° 0 mm 3 mps 753 mmHg 51%
    12:00 +34°C° 0 mm 3 mps 752 mmHg 45%
    13:00 +36°C° 0 mm 3 mps 751 mmHg 39%
    14:00 +37°C° 0 mm 3 mps 750 mmHg 34%
    15:00 +37°C° 0 mm 3 mps 750 mmHg 33%
    16:00 +37°C° 0 mm 4 mps 750 mmHg 33%
    17:00 +37°C° 0 mm 4 mps 749 mmHg 32%
    18:00 +35°C° 0 mm 4 mps 750 mmHg 37%
    19:00 +34°C° 0 mm 4 mps 750 mmHg 43%
    20:00 +32°C° 0 mm 4 mps 751 mmHg 48%
    21:00 +30°C° 0 mm 5 mps 751 mmHg 54%
    22:00 +30°C° 0 mm 5 mps 752 mmHg 60%
    23:00 +29°C° 0 mm 5 mps 752 mmHg 66%

    Tomorrow, 25 January, Saturday

    Time Temperature Precipitation Wind Pressure Humidity
    00:00 +28°C° 0 mm 5 mps 752 mmHg 69%
    01:00 +27°C° 0 mm 5 mps 752 mmHg 71%
    02:00 +27°C° 0 mm 4 mps 752 mmHg 74%
    03:00 +26°C° 0 mm 4 mps 752 mmHg 77%
    04:00 +26°C° 0 mm 4 mps 752 mmHg 80%
    05:00 +25°C° 0 mm 3 mps 752 mmHg 83%
    06:00 +26°C° 0 mm 3 mps 753 mmHg 81%
    07:00 +26°C° 0 mm 3 mps 753 mmHg 79%
    08:00 +27°C° 0 mm 3 mps 754 mmHg 77%
    09:00 +29°C° 0 mm 3 mps 754 mmHg 68%
    10:00 +30°C° 0 mm 3 mps 754 mmHg 59%
    11:00 +33°C° 0 mm 3 mps 754 mmHg 49%
    12:00 +35°C° 0 mm 3 mps 753 mmHg 43%
    13:00 +36°C° 0 mm 3 mps 752 mmHg 37%
    14:00 +37°C° 0 mm 3 mps 751 mmHg 31%
    15:00 +37°C° 0 mm 3 mps 750 mmHg 31%
    16:00 +37°C° 0 mm 3 mps 750 mmHg 30%
    17:00 +38°C° 0 mm 3 mps 750 mmHg 29%
    18:00 +36°C° 0 mm 4 mps 750 mmHg 34%
    19:00 +34°C° 0 mm 5 mps 750 mmHg 39%
    20:00 +32°C° 0 mm 5 mps 751 mmHg 44%
    21:00 +30°C° 0 mm 5 mps 751 mmHg 48%
    22:00 +30°C° 0 mm 5 mps 752 mmHg 52%
    23:00 +29°C° 0 mm 5 mps 752 mmHg 56%

    Day after tomorrow, 26 January, Sunday

    Time Temperature Precipitation Wind Pressure Humidity
    00:00 +28°C° 0 mm 5 mps 752 mmHg 62%
    01:00 +27°C° 0 mm 5 mps 752 mmHg 67%
    02:00 +26°C° 0 mm 5 mps 752 mmHg 72%
    03:00 +26°C° 0 mm 4 mps 752 mmHg 75%
    04:00 +25°C° 0 mm 4 mps 752 mmHg 78%
    05:00 +25°C° 0 mm 4 mps 752 mmHg 81%
    06:00 +25°C° 0 mm 4 mps 752 mmHg 79%
    07:00 +25°C° 0 mm 4 mps 753 mmHg 78%
    08:00 +25°C° 0 mm 4 mps 754 mmHg 76%
    09:00 +28°C° 0 mm 4 mps 754 mmHg 65%
    10:00 +30°C° 0 mm 4 mps 754 mmHg 53%
    11:00 +33°C° 0 mm 4 mps 754 mmHg 42%
    12:00 +34°C° 0 mm 3 mps 753 mmHg 36%
    13:00 +35°C° 0 mm 3 mps 752 mmHg 31%
    14:00 +37°C° 0 mm 3 mps 751 mmHg 25%
    15:00 +37°C° 0 mm 3 mps 751 mmHg 25%
    16:00 +37°C° 0 mm 3 mps 750 mmHg 25%
    17:00 +37°C° 0 mm 3 mps 750 mmHg 25%
    18:00 +35°C° 0 mm 3 mps 750 mmHg 30%
    19:00 +33°C° 0 mm 4 mps 751 mmHg 34%
    20:00 +30°C° 0 mm 4 mps 751 mmHg 39%
    21:00 +30°C° 0 mm 4 mps 752 mmHg 47%
    22:00 +29°C° 0 mm 5 mps 752 mmHg 54%
    23:00 +28°C° 0 mm 6 mps 753 mmHg 61%

    27 January, Monday

    Time Temperature Precipitation Wind Pressure Humidity
    00:00 +27°C° 0 mm 5 mps 753 mmHg 67%
    01:00 +27°C° 0 mm 5 mps 752 mmHg 73%
    02:00 +26°C° 0 mm 5 mps 752 mmHg 79%
    03:00 +26°C° 0 mm 5 mps 752 mmHg 81%
    04:00 +25°C° 0 mm 4 mps 752 mmHg 83%
    05:00 +25°C° 0 mm 4 mps 752 mmHg 85%
    06:00 +26°C° 0 mm 4 mps 753 mmHg 83%
    07:00 +26°C° 0 mm 4 mps 753 mmHg 81%
    08:00 +27°C° 0 mm 4 mps 754 mmHg 78%
    09:00 +28°C° 0 mm 4 mps 754 mmHg 72%
    10:00 +30°C° 0 mm 4 mps 754 mmHg 65%
    11:00 +31°C° 0 mm 3 mps 754 mmHg 59%
    12:00 +33°C° 0 mm 3 mps 753 mmHg 53%
    13:00 +34°C° 0 mm 3 mps 752 mmHg 48%
    14:00 +36°C° 0 mm 3 mps 751 mmHg 43%
    15:00 +36°C° 0 mm 3 mps 751 mmHg 40%
    16:00 +36°C° 0 mm 3 mps 750 mmHg 37%
    17:00 +36°C° 0 mm 2 mps 750 mmHg 34%
    18:00 +35°C° 0 mm 3 mps 750 mmHg 39%
    19:00 +34°C° 0 mm 3 mps 751 mmHg 44%
    20:00 +32°C° 0 mm 4 mps 751 mmHg 50%
    21:00 +32°C° 0 mm 4 mps 752 mmHg 56%
    22:00 +30°C° 0 mm 5 mps 752 mmHg 63%
    23:00 +29°C° 0 mm 6 mps 752 mmHg 69%

    28 January, Tuesday

    Time Temperature Precipitation Wind Pressure Humidity
    00:00 +29°C° 0 mm 5 mps 752 mmHg 72%
    01:00 +28°C° 0 mm 5 mps 752 mmHg 75%
    02:00 +27°C° 0 mm 5 mps 751 mmHg 78%
    03:00 +27°C° 0 mm 4 mps 751 mmHg 79%
    04:00 +27°C° 0 mm 4 mps 751 mmHg 81%
    05:00 +26°C° 0 mm 3 mps 751 mmHg 83%
    06:00 +27°C° 0 mm 3 mps 752 mmHg 81%
    07:00 +27°C° 0 mm 3 mps 753 mmHg 79%
    08:00 +27°C° 0 mm 3 mps 753 mmHg 78%
    09:00 +29°C° 0 mm 3 mps 753 mmHg 70%
    10:00 +30°C° 0 mm 3 mps 753 mmHg 63%
    11:00 +33°C° 0 mm 3 mps 753 mmHg 56%
    12:00 +34°C° 0 mm 3 mps 752 mmHg 53%
    13:00 +34°C° 0 mm 3 mps 751 mmHg 50%
    14:00 +35°C° 0 mm 2 mps 750 mmHg 47%
    15:00 +35°C° 0 mm 3 mps 750 mmHg 46%
    16:00 +36°C° 0 mm 3 mps 749 mmHg 45%
    17:00 +36°C° 0 mm 3 mps 749 mmHg 43%
    18:00 +35°C° 0 mm 4 mps 749 mmHg 49%
    19:00 +33°C° 0 mm 5 mps 750 mmHg 54%
    20:00 +32°C° 0 mm 5 mps 750 mmHg 60%
    21:00 +30°C° 0 mm 5 mps 751 mmHg 65%
    22:00 +29°C° 0 mm 5 mps 751 mmHg 69%
    23:00 +28°C° 0 mm 5 mps 751 mmHg 74%

    29 January, Wednesday

    Time Temperature Precipitation Wind Pressure Humidity
    00:00 +28°C° 0 mm 5 mps 751 mmHg 75%
    01:00 +27°C° 0 mm 5 mps 751 mmHg 76%
    02:00 +27°C° 0 mm 5 mps 751 mmHg 77%
    03:00 +27°C° 0 mm 4 mps 751 mmHg 78%
    04:00 +26°C° 0 mm 4 mps 751 mmHg 79%
    05:00 +26°C° 0 mm 3 mps 751 mmHg 80%
    06:00 +26°C° 0 mm 4 mps 752 mmHg 77%
    07:00 +27°C° 0 mm 4 mps 752 mmHg 74%
    08:00 +27°C° 0 mm 4 mps 753 mmHg 71%
    09:00 +29°C° 0 mm 4 mps 753 mmHg 63%
    10:00 +32°C° 0 mm 5 mps 753 mmHg 54%
    11:00 +34°C° 0 mm 5 mps 753 mmHg 46%
    12:00 +36°C° 0 mm 4 mps 752 mmHg 41%
    13:00 +37°C° 0 mm 4 mps 751 mmHg 37%
    14:00 +38°C° 0 mm 4 mps 750 mmHg 32%
    15:00 +38°C° 0 mm 4 mps 750 mmHg 33%
    16:00 +39°C° 0 mm 5 mps 749 mmHg 34%
    17:00 +37°C° 0 mm 5 mps 749 mmHg 35%
    18:00 +36°C° 0 mm 5 mps 750 mmHg 41%
    19:00 +34°C° 0 mm 5 mps 750 mmHg 47%
    20:00 +33°C° 0 mm 6 mps 751 mmHg 53%
    21:00 +32°C° 0 mm 6 mps 751 mmHg 56%
    22:00 +30°C° 0 mm 6 mps 752 mmHg 60%
    23:00 +29°C° 0 mm 6 mps 752 mmHg 64%
    Show more